Home > Weather > Kaarst > Past weeks

Flag for Germany Past Weather in Kaarst, North Rhine-Westphalia, Germany — Yesterday and Last 2 Weeks

Now
57 °F

Sunny.


Feels Like: 57 °F
Forecast: 51 / 78 °F
Wind: 1 mph from North

Location: Monchengladbach Airport

Current Time: Aug 30, 2016 at 9:28:56 AM

Latest Report: Aug 30, 2016 at 8:50 AM


Visibility: 10 mi

Pressure: 30.30 "Hg

Humidity: 94%

Dew Point: 55 °F

Location of KaarstLocation

Past Weather in Kaarst — Graph

°F

Kaarst Temperature Yesterday

Maximum temperature yesterday: 72 °F (at 3:50 PM)
Minimum temperature yesterday: 63 °F (at 10:50 AM)
Average temperature yesterday: 67 °F

High & Low Weather Summary for the Past Weeks

 TemperatureHumidityPressure
High93 °F (Aug 27, 5:20 PM)100% (Aug 22, 9:50 AM)30.33 "Hg (Aug 22, 9:50 AM)
Low50 °F (Aug 30, 6:50 AM)26% (Aug 25, 4:50 PM)29.77 "Hg (Aug 18, 2:50 PM)
Average74 °F60%30.03 "Hg
* Reported Aug 15 7:50 AM — Aug 30 7:50 AM, Kaarst, Weather by CustomWeather, © 2016

Note: Actual official high and low records may vary slightly from our data, if they occured in-between our weather recording intervals... More about our weather records

Advertising

Kaarst Weather History for the Previous 24 Hours

Scroll right to see more
 ConditionsComfort  
Time TempWeatherWind HumidityBarometerVisibility
7:50 AM
Tue, Aug 30
54 °FSunny.1 mph94%30.30 "Hg10 mi
7:20 AM52 °FLight fog.No wind94%30.27 "HgN/A
6:50 AM50 °FLight fog.2 mph100%30.27 "HgN/A
8:20 PM
Mon, Aug 29
66 °FClear.3 mph73%30.18 "Hg10 mi
7:50 PM68 °FPassing clouds.6 mph64%30.15 "HgN/A
7:20 PM70 °FPassing clouds.7 mph60%30.15 "HgN/A
6:50 PM70 °FPassing clouds.9 mph64%30.15 "HgN/A
6:20 PM72 °FPassing clouds.7 mph61%30.15 "HgN/A
5:50 PM70 °FClear.5 mph64%30.15 "Hg10 mi
5:20 PM68 °FPassing clouds.7 mph73%30.15 "HgN/A
4:50 PM70 °FPassing clouds.5 mph69%30.12 "HgN/A
4:20 PM70 °FPassing clouds.7 mph69%30.12 "HgN/A
3:50 PM72 °FScattered showers. Passing clouds.6 mph65%30.12 "HgN/A
3:20 PM70 °FPassing clouds.6 mph69%30.12 "HgN/A
2:50 PM70 °FPassing clouds.3 mph69%30.12 "HgN/A
2:20 PM68 °FPassing clouds.5 mph78%30.12 "HgN/A
1:50 PM68 °FPassing clouds.3 mph78%30.12 "HgN/A
1:20 PM68 °FPartly cloudy.2 mph78%30.12 "HgN/A
12:50 PM66 °FPartly cloudy.3 mph83%30.09 "HgN/A
12:20 PM64 °FScattered clouds.2 mph94%30.09 "Hg4 mi
11:50 AM64 °FPartly sunny.7 mph94%30.09 "Hg4 mi
11:20 AM63 °FDrizzle. Fog.8 mph94%30.09 "Hg2 mi
10:50 AM63 °FLight rain. Partly sunny.10 mph94%30.09 "Hg4 mi
10:20 AM64 °FLight rain. Fog.9 mph83%30.07 "Hg3 mi
9:50 AM66 °FScattered showers. Partly sunny.6 mph78%30.07 "HgN/A
9:20 AM66 °FPartly sunny.5 mph78%30.07 "HgN/A
Weather by CustomWeather, © 2016

See weather overviewHow to use our weather pages